Retour au catalogue

FENGYUN 1C DEB

ActifSSO
NORAD 35191·DEBRIS·🇨🇳 China

Lancé May 10, 1999 depuis Taiyuan Satellite Launch Center

Loading…

Prochains Passages (prochaines 24 heures)

TLE

FraisSource: Space-Track

Époque: Sep 12, 2026, 05:01 UTC

1 35191U 99025DNX 26255.20921325  .00000058  00000-0  76623-4 0  9999
2 35191  99.0452 234.7506 0102319 184.5043 175.5205 13.91329173917043

Suivez FENGYUN 1C DEB en temps réel avec AllMySat

Download on the App Store